Regional Weather Roundup
Issued by NWS Green Bay, WI

Home | Current Version | Previous Version | Graphics & Text | Print | Product List | Glossary Off
Versions: 1 2 3 4 5 6 7 8 9 10 11 12 13 14 15 16 17 18 19 20 21 22 23 24 25 26 27 28 29 30 31 32 33 34 35 36 37 38 39 40 41 42 43 44 45 46 47 48 49 50

000
ASUS43 KGRB 261400
RWRGRB

NORTH-CENTRAL AND NORTHEAST WISCONSIN REGIONAL WEATHER ROUNDUP
NATIONAL WEATHER SERVICE GREEN BAY WI
900 AM CDT THU APR 26 2018

WIZ005-009-010>012-018-019-261500-
NORTH CENTRAL WISCONSIN

CITY           SKY/WX    TMP DP  RH WIND       PRES   REMARKS
IRONWOOD       FAIR      49  31  49 SW12      29.80F
MANITOWISH WTR NOT AVBL
ARBOR VITAE    NOT AVBL
EAGLE RIVER    FAIR      44  25  47 W7        29.84F
LAND O LAKES   FAIR      46  25  44 SW5       29.85F
RHINELANDER    FAIR      49  31  49 W8        29.86F
PHILLIPS       FAIR      45  31  58 SW7       29.86S
ANTIGO         NOT AVBL
TOMAHAWK       NOT AVBL
MERRILL        NOT AVBL
$$

WIZ013-073-261500-
NORTHEAST WISCONSIN

CITY           SKY/WX    TMP DP  RH WIND       PRES   REMARKS
IRON MOUNTAIN  FAIR      50  27  40 W6        29.84S
MARINETTE      FAIR      46  32  58 W5        29.90F
$$

WIZ017-030-035>037-045-261500-
CENTRAL WISCONSIN

CITY           SKY/WX    TMP DP  RH WIND       PRES   REMARKS
MEDFORD        NOT AVBL
WAUSAU         FAIR      45  30  55 CALM      29.87F
MOSINEE        MOSUNNY   45  32  61 SW6       29.90S
MARSHFIELD     FAIR      48  33  56 SW6       29.88S
WISC RAPIDS    FAIR      47  31  53 SW7       29.91F
STEVENS POINT  NOT AVBL
WAUPACA        FAIR      49  34  55 SW6       29.91F
SHAWANO        FAIR      46  35  64 CALM      29.89F
CLINTONVILLE   FAIR      45  34  65 SW5       29.90S
WAUTOMA        FAIR      46  34  62 SW7       29.92F
$$

WIZ038-039-048-051-261500-
FOX VALLEY

CITY           SKY/WX    TMP DP  RH WIND       PRES   REMARKS
NWS GREEN BAY  FAIR      47  38  71 SW9       29.90F
APPLETON       SUNNY     46  34  61 SW9       29.90F
OSHKOSH        FAIR      49  36  61 W8        29.91F
FOND DU LAC    FAIR      46  33  60 SW12      29.92F
$$

WIZ022-050-052-261500-
EAST CENTRAL WISCONSIN

CITY           SKY/WX    TMP DP  RH WIND       PRES   REMARKS
EPHRAIM        NOT AVBL
WASHINGTON ISL NOT AVBL
STURGEON BAY   FAIR      48  35  60 SW8       29.90F
MANITOWOC      FAIR      49  34  56 SW12      29.92F
SHEBOYGAN      FAIR      50  37  61 W6        29.92F
$$

LMZ563-521-522-541>543-261500-
LAKESHORE

STATION/POSITION TIME  TEMP    WIND        PRES    VSBY  WAVE
                       AIR SEA DIR/SP/G                  HT/PER
                 (UTC) (F)     (DEG/KT/KT) (MB)    (MI)  (FT/S)
SHEBOYGAN LKSHOR 1300   40     200/  6/  6 1014.1F
KEWAUNEE LKSHORE 1330   44     200/  3/  5 1012.4F
NORTHPORT PIER   1340   45                 1012.2F
SISTER BAY LKSHO 1312   45     310/  1/  3   N/A
MENOMINEE LKSHOR 1324   44     210/  5/  6 1012.1
$$




USA.gov is the U.S. government's official web portal to all federal, state and local government web resources and services.